TimeCDT,TemperatureF,Dew PointF,Humidity,Sea Level PressureIn,VisibilityMPH,Wind Direction,Wind SpeedMPH,Gust SpeedMPH,PrecipitationIn,Events,Conditions,WindDirDegrees,DateUTC
12:15 AM,28.0,26.2,93,30.37,10.0,Calm,Calm,-,N/A,,Clear,0,2013-10-25 05:15:00
12:35 AM,25.3,23.5,93,30.36,10.0,Calm,Calm,-,N/A,,Clear,0,2013-10-25 05:35:00
12:55 AM,28.2,25.7,90,30.37,10.0,WSW,3.5,-,N/A,,Clear,240,2013-10-25 05:55:00
1:15 AM,28.0,25.5,90,30.38,10.0,Calm,Calm,-,N/A,,Clear,0,2013-10-25 06:15:00
1:35 AM,29.1,25.5,86,30.38,10.0,Calm,Calm,-,N/A,,Clear,0,2013-10-25 06:35:00
1:55 AM,25.2,23.4,93,30.39,10.0,Calm,Calm,-,N/A,,Clear,0,2013-10-25 06:55:00
2:15 AM,23.7,23.5,99,30.39,10.0,Calm,Calm,-,N/A,,Clear,0,2013-10-25 07:15:00
2:35 AM,24.4,23.2,95,30.39,10.0,Calm,Calm,-,N/A,,Clear,0,2013-10-25 07:35:00
2:55 AM,25.0,23.9,96,30.39,10.0,Calm,Calm,-,N/A,,Clear,0,2013-10-25 07:55:00
3:15 AM,25.3,24.4,96,30.40,10.0,Calm,Calm,-,N/A,,Clear,0,2013-10-25 08:15:00
3:35 AM,25.3,24.3,96,30.39,10.0,Calm,Calm,-,N/A,,Clear,0,2013-10-25 08:35:00
3:55 AM,23.5,23.0,98,30.39,10.0,Calm,Calm,-,N/A,,Clear,0,2013-10-25 08:55:00
4:15 AM,25.2,24.6,98,30.39,10.0,Calm,Calm,-,N/A,,Clear,0,2013-10-25 09:15:00
4:35 AM,22.8,22.1,97,30.39,10.0,Calm,Calm,-,N/A,,Clear,0,2013-10-25 09:35:00
4:55 AM,23.9,23.9,100,30.40,10.0,Calm,Calm,-,N/A,,Clear,0,2013-10-25 09:55:00
5:15 AM,23.0,23.0,100,30.41,10.0,Calm,Calm,-,N/A,,Clear,0,2013-10-25 10:15:00
5:35 AM,22.6,22.6,100,30.41,10.0,Calm,Calm,-,N/A,,Clear,0,2013-10-25 10:35:00
5:55 AM,22.1,22.1,100,30.41,10.0,Calm,Calm,-,N/A,,Clear,0,2013-10-25 10:55:00
6:15 AM,24.4,24.4,100,30.41,10.0,South,3.5,-,N/A,,Clear,190,2013-10-25 11:15:00
6:35 AM,24.3,23.4,96,30.41,10.0,Calm,Calm,-,N/A,,Clear,0,2013-10-25 11:35:00
6:55 AM,23.2,23.0,99,30.41,10.0,Calm,Calm,-,N/A,,Clear,0,2013-10-25 11:55:00
7:15 AM,23.0,22.8,99,30.41,10.0,Calm,Calm,-,N/A,,Clear,0,2013-10-25 12:15:00
7:35 AM,24.8,24.8,100,30.41,10.0,Calm,Calm,-,N/A,,Clear,0,2013-10-25 12:35:00
7:55 AM,22.6,22.6,100,30.41,10.0,Calm,Calm,-,N/A,,Clear,0,2013-10-25 12:55:00
8:15 AM,26.2,26.2,100,30.42,10.0,South,4.6,-,N/A,,Clear,190,2013-10-25 13:15:00
8:35 AM,28.9,28.2,97,30.42,10.0,SSW,3.5,-,N/A,,Clear,200,2013-10-25 13:35:00
8:55 AM,32.0,30.4,94,30.43,10.0,SSW,3.5,-,N/A,,Clear,200,2013-10-25 13:55:00
9:15 AM,34.2,31.8,91,30.43,10.0,SSW,4.6,-,N/A,,Clear,200,2013-10-25 14:15:00
9:35 AM,37.0,32.5,84,30.43,10.0,WSW,3.5,-,N/A,,Clear,240,2013-10-25 14:35:00
9:55 AM,38.7,32.5,79,30.43,10.0,WSW,4.6,-,N/A,,Clear,240,2013-10-25 14:55:00
10:15 AM,40.1,33.4,77,30.43,10.0,SW,5.8,-,N/A,,Clear,220,2013-10-25 15:15:00
10:35 AM,42.3,33.8,72,30.42,10.0,SW,5.8,-,N/A,,Clear,220,2013-10-25 15:35:00
10:55 AM,43.7,33.1,66,30.42,10.0,WSW,4.6,-,N/A,,Clear,250,2013-10-25 15:55:00
11:15 AM,46.0,33.3,61,30.41,10.0,SSW,4.6,-,N/A,,Clear,210,2013-10-25 16:15:00
11:35 AM,47.8,32.5,55,30.41,10.0,WSW,8.1,-,N/A,,Clear,240,2013-10-25 16:35:00
11:55 AM,48.9,32.9,54,30.40,10.0,SW,10.4,-,N/A,,Clear,230,2013-10-25 16:55:00
12:15 PM,49.6,31.6,50,30.39,10.0,SW,10.4,16.1,N/A,,Clear,220,2013-10-25 17:15:00
12:35 PM,50.4,31.6,49,30.38,10.0,West,8.1,-,N/A,,Clear,260,2013-10-25 17:35:00
12:55 PM,50.7,30.2,45,30.37,10.0,SW,12.7,17.3,N/A,,Clear,220,2013-10-25 17:55:00
1:15 PM,50.9,28.8,43,30.35,10.0,WSW,10.4,17.3,N/A,,Clear,240,2013-10-25 18:15:00
1:35 PM,51.8,28.4,41,30.34,10.0,WSW,12.7,20.7,N/A,,Clear,240,2013-10-25 18:35:00
1:55 PM,52.0,28.6,41,30.33,10.0,WSW,10.4,-,N/A,,Clear,240,2013-10-25 18:55:00
2:15 PM,52.2,27.1,38,30.31,10.0,SW,10.4,23.0,N/A,,Clear,230,2013-10-25 19:15:00
2:35 PM,53.2,27.9,38,30.30,10.0,SW,9.2,20.7,N/A,,Clear,230,2013-10-25 19:35:00
2:55 PM,52.9,27.5,38,30.29,10.0,SSW,16.1,-,N/A,,Clear,210,2013-10-25 19:55:00
3:15 PM,52.3,27.0,37,30.28,10.0,SW,13.8,20.7,N/A,,Clear,230,2013-10-25 20:15:00
3:35 PM,52.7,27.7,38,30.27,10.0,SW,15.0,24.2,N/A,,Clear,220,2013-10-25 20:35:00
3:55 PM,52.7,27.5,38,30.26,10.0,SW,13.8,17.3,N/A,,Clear,220,2013-10-25 20:55:00
4:15 PM,52.7,25.9,35,30.25,10.0,SSW,17.3,23.0,N/A,,Clear,210,2013-10-25 21:15:00
4:35 PM,52.5,26.4,36,30.24,10.0,SW,17.3,20.7,N/A,,Clear,220,2013-10-25 21:35:00
4:55 PM,51.8,25.7,36,30.23,10.0,SW,16.1,20.7,N/A,,Clear,230,2013-10-25 21:55:00
5:15 PM,51.1,25.2,36,30.22,10.0,SW,12.7,-,N/A,,Clear,220,2013-10-25 22:15:00
5:35 PM,49.5,25.9,40,30.21,10.0,SSW,11.5,-,N/A,,Clear,200,2013-10-25 22:35:00
5:55 PM,47.5,26.4,44,30.20,10.0,SSW,11.5,-,N/A,,Clear,200,2013-10-25 22:55:00
6:15 PM,45.5,26.8,48,30.20,10.0,South,9.2,-,N/A,,Clear,190,2013-10-25 23:15:00
6:35 PM,44.6,27.3,51,30.19,10.0,South,9.2,-,N/A,,Clear,190,2013-10-25 23:35:00
6:55 PM,44.1,27.7,53,30.19,10.0,South,10.4,-,N/A,,Clear,190,2013-10-25 23:55:00
7:15 PM,42.8,28.0,56,30.19,10.0,SSW,9.2,-,N/A,,Clear,200,2013-10-26 00:15:00
7:35 PM,43.0,28.2,56,30.18,10.0,South,10.4,-,N/A,,Clear,190,2013-10-26 00:35:00
7:55 PM,42.4,28.4,58,30.18,10.0,South,11.5,-,N/A,,Clear,190,2013-10-26 00:55:00
8:15 PM,42.4,28.4,58,30.17,10.0,South,11.5,-,N/A,,Clear,190,2013-10-26 01:15:00
8:35 PM,42.1,28.2,58,30.16,10.0,SSW,11.5,-,N/A,,Clear,200,2013-10-26 01:35:00
8:55 PM,41.9,28.0,58,30.15,10.0,SSW,11.5,-,N/A,,Clear,200,2013-10-26 01:55:00
9:15 PM,41.2,28.0,60,30.15,10.0,South,11.5,-,N/A,,Clear,190,2013-10-26 02:15:00
9:35 PM,41.0,28.0,60,30.14,10.0,South,11.5,-,N/A,,Clear,190,2013-10-26 02:35:00
9:55 PM,40.3,28.2,62,30.14,10.0,South,11.5,-,N/A,,Clear,190,2013-10-26 02:55:00
10:15 PM,39.2,28.2,65,30.14,10.0,South,9.2,-,N/A,,Clear,190,2013-10-26 03:15:00
10:35 PM,39.2,28.4,65,30.14,10.0,SSW,10.4,-,N/A,,Clear,200,2013-10-26 03:35:00
10:55 PM,38.7,28.4,67,30.14,10.0,SSW,8.1,-,N/A,,Clear,200,2013-10-26 03:55:00
11:15 PM,39.2,28.4,65,30.12,10.0,SSW,12.7,-,N/A,,Clear,200,2013-10-26 04:15:00
11:35 PM,39.6,28.4,64,30.11,10.0,SSW,12.7,-,N/A,,Clear,200,2013-10-26 04:35:00
11:55 PM,40.1,28.2,63,30.09,10.0,SSW,13.8,-,N/A,,Clear,200,2013-10-26 04:55:00